User: anonymous   Login
Location: Codford Saint Peter
(51.1597°N, 2.0531°W)
Time: 02:39:30
(UTC+00:00)
Language:

CZ-2C R/B - Orbit

View from above orbital plane
View from above orbital plane
View from above satellite
View from above satellite

Ground track
Ground track

The orbit data is extracted from the following two-line orbital elements,

1 31114U 07010B   20329.54241457  .00000037  00000-0  35586-4 0  9997
2 31114  98.2414 171.5297 0060063 159.4267 200.9349 14.19337623705728
Epoch (UTC): 24 November 2020 13:01:04
Eccentricity: 0.0060063
inclination: 98.2414°
perigee height: 784 km
apogee height: 871 km
right ascension of ascending node: 171.5297°
argument of perigee: 159.4267°
revolutions per day: 14.19337623
mean anomaly at epoch: 200.9349°
orbit number at epoch: 70572

The dashed part of the orbit path shows where the satellite is in the earth's shadow,  

DLR